Regional Weather Roundup
Issued by NWS

Home | Current Version | Previous Version | Text Only | Print | Product List | Glossary On
Versions: 1 2 3 4 5 6 7 8 9 10 11 12 13 14 15 16 17 18 19 20 21 22 23 24 25 26 27 28 29 30 31 32 33 34 35 36 37 38 39 40 41 42 43 44 45 46 47 48 49 50
000
ASUS43 KDMX 252001
RWRIA

WEATHER ROUNDUP FOR IOWA
NATIONAL WEATHER SERVICE DES MOINES IA
300 PM CDT SAT MAR 25 2017

NOTE: "FAIR" INDICATES FEW OR NO CLOUDS BELOW 12,000 FEET WITH NO
SIGNIFICANT WEATHER AND/OR OBSTRUCTIONS TO VISIBILITY.

* - THESE STATIONS ARE NOT NWS STATIONS...THUS NOT UNDER NWS
QUALITY CONTROL.  THEY ALSO DO NOT REPORT WEATHER SUCH
AS PRECIPITATION OR FOG.

IAZ001>003-012>014-020>022-031>034-043>046-252100-
   NORTHWEST IOWA

CITY           SKY/WX    TMP DP  RH WIND       PRES   REMARKS
CARROLL *      CLOUDY    39  39 100 NE21      29.94F WCI  29
CHEROKEE *     CLOUDY    39  38  96 NE10G20   29.99F WCI  32
LE MARS *      CLOUDY    41  37  87 NE13G20   30.00F
ORANGE CITY *  CLOUDY    39  37  93 E14G20    29.99F WCI  31
SHELDON *      CLOUDY    39  39 100 E20       29.98F WCI  30
SIOUX CITY     CLOUDY    40  38  93 NE12      29.99F WCI  33
SPENCER        CLOUDY    39  37  92 NE16      30.00F WCI  30
STORM LAKE *   MIX PCPN  37  37 100 NE21      29.97F WCI  27
$$

IAZ055>058-069>071-079>083-090>094-252100-
   SOUTHWEST IOWA

CITY           SKY/WX    TMP DP  RH WIND       PRES   REMARKS
ATLANTIC *     CLOUDY    41  39  93 NE13G26   29.92F
AUDUBON *      CLOUDY    39  37  93 NE13G21   29.94F WCI  32
CLARINDA *     CLOUDY    45  43  93 NE13      29.91F
COUNCIL BLFS *   N/A     43  43 100 NE15      29.93F
CRESTON *      CLOUDY    41  41 100 NE16G22   29.89F
HARLAN  *      CLOUDY    41  41 100 NE17      29.96F
LAMONI         CLOUDY    45  43  93 NE13      29.86F
RED OAK *      CLOUDY    43  41  93 NE9G17    29.92F
SHENANDOAH *   LGT RAIN  43  41  93 N13G21    29.92F
$$

IAZ047>049-059>061-072>074-084-252100-
   CENTRAL IOWA

CITY           SKY/WX    TMP DP  RH WIND       PRES   REMARKS
AMES           LGT RAIN  41  41 100 NE15G22   29.92F
ANKENY *       CLOUDY    43  39  87 MISG      29.93F
BOONE *        LGT RAIN  41  41 100 NE18      29.92F
CHARITON *     CLOUDY    43  41  93 NE15      29.88F
DES MOINES     CLOUDY    43  40  89 NE12      29.91F
GRINNELL*      CLOUDY    41  40  95 NE14      29.92S FOG
MARSHALLTOWN   LGT RAIN  42  41  96 NE17      29.92F
NEWTON *       CLOUDY    41  39  93 NE16G24   29.90S
PELLA *        CLOUDY    43  42  96 NE8       29.91S FOG
PERRY *        CLOUDY    41  40  93 NE16      29.93F
$$

IAZ004>006-015-016-023>025-035-036-252100-
   NORTH CENTRAL IOWA

CITY           SKY/WX    TMP DP  RH WIND       PRES   REMARKS
ALGONA *       CLOUDY    39  39 100 NE17      29.99F WCI  30
CLARION *      CLOUDY    39  39 100 NE17G25   29.97S FOG     WCI  30
ESTHERVILLE    CLOUDY    37  37 100 NE16      30.01F FOG     WCI  28
FORT DODGE *   CLOUDY    39  36  87 NE12G17   29.98F WCI  32
MASON CITY     LGT RAIN  38  36  92 NE20      30.00F FOG     WCI  28
FOREST CITY *  HVY RAIN  37  36  93 NE12G20   29.99F WCI  30
WEBSTER CITY * LGT RAIN  39  37  93 NE14      29.94F WCI  31
IOWA FALLS *   LGT RAIN  40  39  95 NE17G23   29.96F WCI  32
$$

IAZ007>011-017>019-026>030-037>042-050>054-066-252100-
   NORTHEAST IOWA

CITY           SKY/WX    TMP DP  RH WIND       PRES   REMARKS
CEDAR RAPIDS   LGT RAIN  42  42 100 NE15      29.90F FOG
CHARLES CITY * RAIN      39  39 100 NE13G24   29.99S WCI  32
CLINTON *      CLOUDY    47  47 100 E18       29.92F
DECORAH *      LGT RAIN  37  37 100 NE15      29.99F WCI  28
DUBUQUE        CLOUDY    40  40 100 NE20G29   29.94F FOG     WCI  30
MONTICELLO *   PTSUNNY   43  41  93 NE12G20   29.93F FOG
OELWEIN *      LGT RAIN  39  39 100 NE21      29.95F WCI  29
WATERLOO       LGT RAIN  41  38  89 NE15      29.95F FOG
$$

IAZ064-065-067-068-078-252100-
   EAST CENTRAL IOWA

CITY           SKY/WX    TMP DP  RH WIND       PRES   REMARKS
DAVENPORT      CLOUDY    48  47  96 E16       29.91F
IOWA CITY      CLOUDY    46  43  89 E10       29.92S
MUSCATINE *    CLOUDY    48  46  93 NE9       29.89F
QUAD CITIES    CLOUDY    53  50  89 E13       29.89F
$$

IAZ062-063-075>077-085>089-095>099-252100-
   SOUTHEAST IOWA

CITY           SKY/WX    TMP DP  RH WIND       PRES   REMARKS
BURLINGTON     PTSUNNY   59  54  83 NE7       29.85F
FAIRFIELD *    CLOUDY    46  46 100 NE13      29.87F FOG
FORT MADISON * CLOUDY    57  57 100 N5        29.85F
KEOKUK *       CLOUDY    57  54  88 N8        29.83F
OSKALOOSA *    CLOUDY    43  42  97 NE12      29.89F FOG
OTTUMWA        CLOUDY    45  45 100 NE14      29.88F FOG
WASHINGTON *   CLOUDY    46  46 100 NE14      29.89F
$$

ABBREVIATIONS USED IN REMARKS
   TC - TEMPERATURES IN CELSIUS
  WCI - WIND CHILL INDEX
   HX - HEAT INDEX
  VSB - VISIBILITY
$$





USA.gov is the U.S. government's official web portal to all federal, state and local government web resources and services.